Regional Weather Roundup
Issued by NWS

Home | Current Version | Previous Version | Graphics & Text | Print | Product List | Glossary On
Versions: 1 2 3 4 5 6 7 8 9 10 11 12 13 14 15 16 17 18 19 20 21 22 23 24 25 26 27 28 29 30 31 32 33 34 35 36 37 38 39 40 41 42 43 44 45 46 47 48 49 50
000
ASUS43 KOAX 280702
RWRNE

WEATHER ROUNDUP FOR NEBRASKA
NATIONAL WEATHER SERVICE OMAHA NE
200 AM CDT FRI AUG 28 2015

NOTES: SATELLITE DATA IS BEING USED TO AUGMENT CLOUD COVER ABOVE
       12000 FEET.
       "FAIR" INDICATES FEW OR NO CLOUDS BELOW 12,000 FEET WITH NO
       SIGNIFICANT WEATHER AND/OR OBSTRUCTIONS TO VISIBILITY.

  * THESE STATIONS DO NOT REPORT WEATHER SUCH AS RAIN...SNOW OR FOG.

NEZ001>004-019>022-054>056-280800-
NEBRASKA PANHANDLE

CITY           SKY/WX    TMP DP  RH WIND       PRES   REMARKS
SCOTTSBLUFF    PTCLDY    59  55  87 N7        30.06F
ALLIANCE       PTCLDY    54  52  93 W7        30.04S
CHADRON        PTCLDY    57  53  86 CALM      30.02F
KIMBALL        MOCLDY    58  55  87 NW3       30.11F
SIDNEY         PTCLDY    60  55  83 W10       30.09R
$$

NEZ057>060-069>072-079>082-280800-
SOUTHWEST NEBRASKA

CITY           SKY/WX    TMP DP  RH WIND       PRES   REMARKS
NORTH PLATTE   CLEAR     68  64  87 NW10      29.93S
IMPERIAL       CLEAR     65  59  81 NW9       30.00S
LEXINGTON      MOCLDY    69  67  94 W7        29.89S FOG
MC COOK        CLEAR     69  63  81 NW10      29.93R
OGALLALA       CLEAR     65  61  86 NW13      30.00S
$$

NEZ005>010-023>029-035>040-094-280800-
NORTH CENTRAL NEBRASKA

CITY           SKY/WX    TMP DP  RH WIND       PRES   REMARKS
AINSWORTH      LGT RAIN  69  68  98 E3        29.92R
BROKEN BOW     MOCLDY    68  65  90 N3        29.89R
O`NEILL        CLOUDY    69  66  92 E6        29.88F
ORD            PTCLDY    65  63  93 N6        29.84S
THEDFORD       CLOUDY    68  66  93 NW6       29.95S
$$

NEZ041-046>049-061>064-073>077-083>087-280800-
SOUTH CENTRAL NEBRASKA

CITY           SKY/WX    TMP DP  RH WIND       PRES   REMARKS
GRAND ISLAND   MOCLDY    73  65  75 SW13      29.84S
AURORA         CLOUDY    73  67  82 S6        29.84S
HASTINGS       MOCLDY    72  66  81 SW14G22   29.83F
HEBRON         MOCLDY    76  63  63 S23G29    29.84R
HOLDREGE       CLEAR     70  64  80 S7        29.87S
KEARNEY *      PTCLDY    72  63  73 SW12      29.85S
YORK           CLOUDY    72  68  88 S10       29.84F
$$

NEZ011>018-030>034-042>045-280800-
NORTHEAST NEBRASKA

CITY           SKY/WX    TMP DP  RH WIND       PRES   REMARKS
NORFOLK        CLOUDY    68  65  90 SE17G24   29.83F
ALBION         CLOUDY    67  64  91 SE8       29.83S
BLAIR          TSTM      67  64  93 E14       29.92F
COLUMBUS *     CLOUDY   N/A N/A N/A SE6       29.86F
FREMONT        TSTM      69  66  90 E14G23    29.90F
TEKAMAH        HVY RAIN  67  66  97 E10G17    29.95R FOG
$$

NEZ050>053-065>068-078-088>093-280800-
SOUTHEAST NEBRASKA

CITY           SKY/WX    TMP DP  RH WIND       PRES   REMARKS
LINCOLN        TSTM      69  68  96 E14       29.87F FOG
OMAHA EPPLEY   TSTM      69  67  93 S12       29.96F
BEATRICE       CLOUDY    71  66  85 S21G26    29.84F
FALLS CITY     LGT RAIN  70  67  90 SE14      29.91F
NEBRASKA CITY  LGT RAIN  69  68  96 SE7       29.92R
PLATTSMOUTH    TSTM      67  65  93 NE5       29.96R
$$

NEZ044-045-051>053-067-280800-
OMAHA AREA

CITY           SKY/WX    TMP DP  RH WIND       PRES   REMARKS
EPPLEY FIELD   TSTM      69  67  93 S12       29.96F
BLAIR          TSTM      67  64  93 E14       29.92F
FREMONT        TSTM      69  66  90 E14G23    29.90F
MILLARD        RAIN      69  67  94 SE10      29.93F
OFFUTT AFB     TSTM      68  66  94 E14       29.93F FOG
PLATTSMOUTH    TSTM      67  65  93 NE5       29.96R
WAHOO          HVY RAIN  69  67  94 SE17G26   29.88F
$$



USA.gov is the U.S. government's official web portal to all federal, state and local government web resources and services.